This is the latest recevied weather packets stored in our database for station/object DL1SEW-6. If no packets are shown the sender has not sent any weather packets the latest 10 day(s).
| Time | Temp. | Humidity | Pressure | Rain* | Wind** | Luminosity | Snow |
|---|---|---|---|---|---|---|---|
| 1777562702 | 16.67° C | 23% | 1022.7 hPa | 0 mm | - | 533 W/m² | - |
| 1777561802 | 16.67° C | 23% | 1022.6 hPa | 0 mm | - | 578 W/m² | - |
| 1777560902 | 16.67° C | 23% | 1022.9 hPa | 0 mm | - | 614 W/m² | - |
| 1777560004 | 16.67° C | 24% | 1022.9 hPa | 0 mm | - | 653 W/m² | - |
| 1777559103 | 16.67° C | 23% | 1023 hPa | 0 mm | - | 690 W/m² | - |
| 1777558201 | 16.11° C | 23% | 1023 hPa | 0 mm | - | 722 W/m² | - |
| 1777557301 | 16.67° C | 22% | 1023 hPa | 0 mm | - | 754 W/m² | - |
| 1777556401 | 16.67° C | 23% | 1023.1 hPa | 0 mm | - | 780 W/m² | - |
| 1777555501 | 16.11° C | 26% | 1022.9 hPa | 0 mm | - | 725 W/m² | - |
| 1777554602 | 16.67° C | 25% | 1023 hPa | 0 mm | - | 66 W/m² | - |
| 1777553700 | 16.11° C | 26% | 1023.1 hPa | 0 mm | - | 851 W/m² | - |
| 1777552800 | 16.11° C | 27% | 1023.1 hPa | 0 mm | - | 870 W/m² | - |
| 1777551900 | 16.11° C | 26% | 1023.3 hPa | 0 mm | - | 885 W/m² | - |
| 1777551000 | 15.56° C | 27% | 1023.3 hPa | 0 mm | - | 895 W/m² | - |
| 1777550102 | 15.56° C | 28% | 1023.2 hPa | 0 mm | - | 902 W/m² | - |
| 1777549201 | 15° C | 27% | 1023.3 hPa | 0 mm | - | 910 W/m² | - |
| 1777548299 | 15° C | 27% | 1023.2 hPa | 0 mm | - | 912 W/m² | - |
| 1777547401 | 15° C | 29% | 1023.3 hPa | 0 mm | - | 912 W/m² | - |
| 1777546499 | 15° C | 30% | 1023.3 hPa | 0 mm | - | 901 W/m² | - |
| 1777545604 | 14.44° C | 31% | 1023.5 hPa | 0 mm | - | 895 W/m² | - |
| 1777544704 | 14.44° C | 31% | 1023.6 hPa | 0 mm | - | 880 W/m² | - |
| 1777543805 | 14.44° C | 34% | 1023.5 hPa | 0 mm | - | 865 W/m² | - |
| 1777542905 | 14.44° C | 32% | 1023.6 hPa | 0 mm | - | 850 W/m² | - |
| 1777542003 | 13.89° C | 33% | 1023.7 hPa | 0 mm | - | 824 W/m² | - |
| 1777541103 | 13.33° C | 32% | 1023.6 hPa | 0 mm | - | 803 W/m² | - |
* Rain latest hour (hover to see other rain measurements)
** Current wind speed in m/s (hover to see current wind gust speed)